{"data":{"norad_id":69304,"intl_designator":"2026-119J","name":"STARLINK-37731","alt_names":[],"object_type":"PAYLOAD","status":"ACTIVE","operator":null,"country":"US","launch_date":"2026-05-30","launch_site_code":"AFWTR","launch_vehicle":null,"mission":null,"orbit_class":"UNKNOWN","rcs_meters":null,"size_class":null,"mass_kg":null,"dimensions":null,"purposes":["comms"],"wikipedia_slug":null,"has_3d_model":false,"image_url":null,"decayed_at":null,"tle_current":{"epoch":"2026-09-20T01:14:53.702016Z","epoch_age_seconds":67750,"freshness":"FRESH","line1":"1 69304U 26119J   26263.05201044  .00009572  00000+0  29839-3 0  9992","line2":"2 69304  97.2849 287.7764 0000681 115.7950 244.3363 15.33450035 18594","mean_motion":15.33450035,"eccentricity":6.81e-5,"inclination_deg":97.2849,"raan_deg":287.7764,"arg_perigee_deg":115.795,"mean_anomaly_deg":244.3363,"bstar":0.00029839,"rev_number":1859,"period_min":93.905896320906,"perigee_km":465.06214030184,"apogee_km":465.99424750125,"semimajor_km":6843.6651939015,"source":"CELESTRAK","updated_at":"2026-09-20T09:00:44.155509Z"}}}